Probability
3 3 2 1 0 0 0 0 0 0 0 0 0 0 0 0 0 0 0 0 0 0 0 0 0 1 2 3 3 3 3 3 3 3 3 3 3 1 0 1 2 2 1
3 3 2 1 0 0 0 0 0 0 0 0 0 0 0 0 0 0 0 0 0 0 0 0 0 0 1 3 3 3 3 3 3 3 3 3 3 2 1 0 1 1 1
3 3 3 1 0 0 0 0 0 0 0 0 0 0 0 0 0 0 0 0 0 0 0 0 0 0 1 2 3 3 3 3 3 3 3 3 3 3 1 1 1 2 2
3 3 3 2 1 0 0 0 0 0 0 0 0 0 0 0 0 0 0 0 0 0 0 0 0 0 0 1 1 2 3 3 3 3 3 3 3 3 3 2 3 3 3
3 3 4 3 1 0 0 0 0 0 0 0 0 0 0 0 0 0 0 0 0 0 0 0 0 0 0 0 0 1 2 3 3 3 3 3 3 3 3 3 3 3 3
3 4 4 4 2 0 0 0 0 0 0 0 0 0 0 0 0 0 0 0 0 0 0 0 0 0 0 0 0 0 1 2 3 3 3 3 3 3 3 3 3 3 3
2 3 3 3 2 1 0 0 0 0 0 0 0 0 0 0 0 0 0 0 0 0 0 0 0 0 0 0 0 0 0 2 3 3 3 3 3 3 3 3 3 3 3
1 1 1 2 2 1 0 0 0 0 0 0 1 0 0 0 0 0 0 0 0 0 0 0 0 0 0 0 0 0 1 2 3 3 4 3 3 3 3 3 3 3 3
0 0 0 1 1 1 0 0 0 0 0 0 0 0 0 0 0 0 0 0 0 0 0 0 0 0 0 0 0 0 1 2 3 4 4 4 4 4 3 3 3 3 3
0 0 0 0 0 0 0 0 0 0 0 0 0 0 0 0 0 0 0 0 0 0 0 0 0 0 0 0 0 0 0 1 2 3 3 4 4 4 4 3 3 3 3
0 0 0 0 0 0 0 0 0 0 0 0 0 0 0 0 0 0 0 0 0 0 0 0 0 0 0 0 0 0 0 0 1 1 2 3 3 3 4 3 3 3 3
0 0 0 0 0 0 0 0 0 0 0 0 0 0 0 0 0 0 0 0 0 0 0 0 0 0 0 0 0 0 0 0 0 0 1 2 2 2 2 2 2 2 2
0 0 0 0 0 0 0 0 0 0 0 0 0 0 0 0 0 0 0 0 0 0 0 0 0 0 0 0 0 0 0 0 0 0 0 1 1 1 0 1 1 1 1
0 0 0 0 0 0 0 0 0 0 0 0 0 0 0 0 0 0 0 0 0 0 0 0 0 0 0 0 0 0 0 0 0 0 0 0 0 0 0 0 0 0 0
0 0 0 0 0 0 0 0 0 0 0 0 0 0 0 0 0 0 0 0 0 0 0 0 0 0 0 0 0 0 0 0 0 0 0 0 0 0 0 0 0 0 0
0 0 0 0 0 0 0 0 0 0 0 0 0 0 0 0 0 0 0 0 0 0 0 0 0 0 0 0 0 0 0 0 0 0 0 0 0 0 0 0 0 0 0
0 0 0 0 0 0 0 0 0 0 0 0 0 0 0 0 0 0 0 0 0 0 0 0 0 0 0 0 0 0 0 0 0 0 0 0 0 0 0 0 0 0 0
0 0 0 0 0 0 0 0 0 0 0 0 0 0 0 0 0 0 0 0 0 0 0 0 0 0 0 0 0 0 0 0 0 0 0 0 0 0 0 0 0 0 0
0 0 0 0 0 0 0 0 0 0 0 0 0 0 0 0 0 0 0 0 0 0 0 0 0 0 0 0 0 0 0 0 0 0 0 0 0 0 0 0 0 0 0
0 0 0 0 0 0 0 0 0 0 0 0 0 0 0 0 0 0 0 0 0 0 0 0 0 0 0 0 0 0 0 0 0 0 0 0 0 0 0 0 0 0 0
0 0 0 0 0 0 0 0 0 0 0 0 0 0 0 0 0 0 0 0 0 0 0 0 0 0 0 0 0 0 0 0 0 0 0 0 0 0 0 0 0 0 0
0 0 0 0 0 0 0 0 0 0 0 0 0 0 0 0 0 0 0 0 0 0 0 0 0 0 0 0 0 0 0 0 0 0 0 0 0 0 0 0 0 0 0
0 0 0 0 0 0 0 0 0 0 0 0 0 0 0 0 0 0 0 0 0 0 0 0 0 0 0 0 0 0 0 0 0 0 0 0 0 0 0 0 0 0 0
0 0 0 0 0 0 0 0 0 0 0 0 0 0 0 0 0 0 0 0 0 0 0 0 0 0 0 0 0 0 0 0 0 0 0 0 0 0 0 0 0 0 0
0 0 0 0 0 0 0 0 0 0 0 0 0 0 0 0 0 0 0 0 0 0 0 0 0 0 0 0 0 0 0 0 0 0 0 0 0 0 0 0 0 0 0
0 0 0 0 0 0 0 0 0 0 0 0 0 0 0 0 0 0 0 0 0 0 0 0 0 0 0 0 0 0 0 0 0 0 0 0 0 0 0 0 0 0 0
Wind_Speed
1 0 0 0 1 1 1 1 1 1 1 1 1 1 1 0 0 0 1 2 2 2 1 2 2 2 3 3 3 2 2 3 4 4 4 5 5 4 4 4 4 4 4
1 1 1 0 0 1 1 0 0 0 0 0 1 0 0 0 0 0 0 1 2 2 1 1 2 2 2 3 3 3 2 2 3 4 4 4 4 4 3 4 3 3 4
2 2 1 1 1 1 1 1 0 0 0 1 1 1 1 1 1 1 1 1 1 2 2 1 1 1 1 1 2 3 3 2 3 4 4 4 4 4 3 3 3 3 3
2 2 2 1 1 1 0 0 0 0 0 1 1 1 1 1 2 2 1 1 1 1 2 2 1 1 1 2 2 3 3 3 3 4 4 4 4 4 3 3 3 3 2
2 2 2 2 2 1 1 1 0 1 1 1 1 1 1 2 2 2 2 2 1 1 1 1 1 2 2 2 2 2 3 4 4 5 5 4 4 5 4 4 4 4 4
2 2 2 2 2 1 1 1 1 1 1 1 2 2 2 2 2 2 2 2 2 2 1 1 1 1 2 3 3 3 4 5 5 5 6 6 5 5 5 5 4 5 5
1 2 2 2 2 2 2 2 1 1 1 0 0 1 2 2 2 2 2 1 2 2 1 1 1 1 1 3 4 4 5 6 6 6 7 6 6 6 5 6 6 6 6
2 2 3 2 2 2 2 1 1 1 1 0 1 0 1 2 1 2 1 2 2 1 1 1 1 1 1 1 3 5 6 7 8 8 8 9 8 8 7 7 7 6 6
2 2 3 3 3 3 3 3 3 2 1 1 1 1 1 2 2 2 2 2 1 1 1 2 2 2 2 2 2 4 6 7 8 9 9 9 9 9 9 8 8 8 7
3 3 3 3 3 3 3 4 3 2 3 2 1 1 2 2 1 2 2 2 2 3 3 3 3 3 3 2 3 5 6 7 8 9 9 9 10 10 9 9 8 8 9
3 3 3 2 3 3 3 4 3 3 2 3 2 2 2 2 2 2 3 2 2 3 3 3 3 3 3 3 3 5 7 8 8 9 9 10 10 11 10 9 10 9 9
3 3 3 3 3 3 4 3 3 3 3 3 3 2 2 2 2 2 3 3 4 3 3 3 3 3 3 3 4 6 7 8 9 9 10 10 10 10 10 9 9 10 10
3 3 3 3 3 3 4 3 3 4 4 4 4 4 4 3 2 2 3 3 4 3 3 3 3 3 3 3 3 6 7 8 9 10 11 10 9 9 9 9 9 9 9
4 4 4 4 4 4 4 4 3 4 4 5 5 5 4 4 3 3 3 3 4 4 3 4 3 4 3 3 5 7 6 9 10 10 10 11 9 8 9 10 9 10 9
4 4 4 4 4 4 4 4 4 4 4 5 5 5 5 4 4 4 3 3 4 5 6 4 3 3 3 3 6 5 5 8 10 10 10 10 10 9 10 10 10 9 9
5 4 4 4 4 4 5 4 4 4 5 5 4 5 6 5 4 4 4 4 4 5 7 5 4 3 4 4 6 5 6 9 9 10 10 11 11 11 11 11 11 10 11
5 5 4 4 4 5 5 4 5 5 6 6 6 6 7 6 5 4 4 4 5 5 8 7 4 3 4 5 5 5 5 5 6 10 11 12 11 11 11 10 11 11 11
5 5 4 5 5 6 5 5 6 6 6 6 6 6 7 5 6 5 5 5 5 5 6 9 6 4 5 5 5 5 5 5 5 8 11 12 12 11 11 11 11 11 11
5 5 5 5 6 6 6 6 6 7 7 7 7 6 6 6 6 5 5 6 5 6 6 7 7 4 4 4 4 4 5 4 5 6 9 10 11 11 11 10 10 10 11
5 5 5 6 6 6 6 7 7 7 7 7 7 7 7 7 7 7 6 6 6 6 6 6 6 5 4 4 3 4 5 4 5 5 7 7 9 9 10 10 10 10 10
6 6 6 6 6 5 6 6 6 7 7 7 7 7 7 8 10 8 7 6 6 5 5 6 6 5 4 4 4 4 5 4 4 4 4 4 4 5 6 8 9 10 10
6 6 6 6 6 6 8 10 9 7 7 7 7 7 7 8 10 12 12 11 9 8 7 7 6 7 6 5 4 4 4 5 5 2 3 5 4 5 4 4 7 9 9
6 6 6 6 7 7 10 11 11 8 6 6 6 6 6 6 8 7 9 11 11 12 12 9 8 8 7 6 5 6 6 7 7 3 3 6 4 6 4 4 8 9 9
6 6 6 6 6 7 10 11 11 7 6 6 6 7 7 7 7 7 7 8 8 8 10 8 8 8 7 6 7 8 8 6 5 3 3 5 4 5 5 4 6 8 9
6 6 6 6 6 7 9 10 10 5 5 6 6 6 7 7 10 11 8 8 8 7 9 11 11 11 12 12 10 6 5 5 6 4 3 4 4 4 4 4 4 7 8
6 6 6 5 6 6 8 10 10 4 5 5 5 6 9 10 10 11 8 7 8 7 6 6 7 9 8 9 11 9 7 7 5 5 3 3 3 2 4 3 3 3 5
Wind_Direction
159 161 131 73 7 354 357 3 4 24 19 14 28 51 40 75 96 23 337 348 3 24 87 121 140 142 159 157 149 134 136 139 143 140 131 125 118 118 119 116 105 110 120
176 181 182 175 273 333 318 282 272 300 289 315 349 326 263 217 209 258 283 309 337 346 325 167 143 154 170 174 171 169 173 166 162 155 154 151 141 130 139 130 127 118 134
189 188 194 204 228 259 306 315 302 340 337 330 303 272 245 238 231 231 235 246 280 313 312 253 199 175 180 199 198 196 198 198 185 175 175 178 171 161 150 159 147 138 135
195 189 199 215 225 208 235 257 252 322 309 314 293 269 259 245 233 230 223 222 237 278 295 298 292 263 249 260 240 232 221 219 213 199 194 185 182 181 175 178 186 175 167
202 194 204 211 209 190 217 236 266 247 259 295 286 276 262 252 232 223 228 222 219 233 252 268 291 295 283 274 268 260 237 229 230 218 205 199 197 200 195 195 200 193 196
220 203 206 207 196 186 214 228 221 261 236 249 278 288 272 255 231 216 224 227 230 224 215 222 254 282 291 282 272 271 259 242 236 232 220 218 220 215 212 208 211 210 209
239 219 211 205 195 194 209 219 211 216 287 268 38 321 302 264 233 218 219 221 235 233 206 206 214 268 276 284 279 275 274 260 247 240 230 227 228 225 223 218 219 221 222
246 241 208 207 203 199 210 217 172 185 256 314 159 141 311 295 275 256 235 217 222 223 219 237 235 239 261 268 281 285 281 272 258 248 236 230 231 231 229 229 224 226 232
256 250 227 206 200 198 208 220 193 178 206 261 207 181 189 242 287 264 235 227 224 228 235 243 243 246 258 258 272 276 280 281 268 256 247 236 231 234 234 235 234 230 232
261 256 236 214 202 207 212 218 207 195 185 219 247 247 236 214 228 274 264 251 247 243 243 255 253 248 244 245 261 273 275 278 278 267 257 247 237 234 237 238 240 238 234
267 264 243 225 217 212 215 210 210 204 197 210 224 238 255 270 241 235 259 263 268 250 241 242 245 242 238 238 244 262 268 271 274 276 266 253 250 242 240 243 240 243 239
277 275 266 241 232 222 216 214 212 211 213 215 228 228 223 220 232 237 251 258 260 257 252 243 241 241 241 240 254 269 269 273 275 276 272 263 258 255 247 245 244 244 246
284 278 275 256 245 237 224 217 217 223 221 219 224 233 236 236 231 242 252 266 269 272 255 245 235 238 244 238 250 269 266 272 275 276 273 266 265 265 261 251 248 249 251
269 270 267 263 258 248 241 223 224 228 227 225 232 234 241 243 237 235 236 250 275 269 254 249 242 232 239 239 256 260 258 267 269 270 273 272 270 269 270 259 255 252 254
272 267 267 268 266 258 249 232 229 232 231 230 234 235 241 243 237 240 240 232 239 261 259 244 237 233 238 241 256 248 251 262 266 266 269 272 270 264 263 261 253 250 250
269 269 270 268 269 262 254 243 237 235 235 240 238 238 243 246 242 237 237 240 240 246 263 252 238 247 245 260 264 251 250 267 265 267 269 269 268 262 258 258 250 246 245
273 266 265 265 266 262 252 244 242 235 236 242 244 243 245 246 247 241 237 239 241 243 259 271 255 251 237 248 258 250 253 250 254 264 267 269 267 262 257 255 253 250 246
271 267 266 264 263 262 252 241 243 241 236 242 243 244 249 248 249 246 240 243 245 244 252 269 271 254 247 245 245 249 257 260 255 262 264 266 266 263 258 254 255 252 248
272 270 265 261 261 258 254 247 242 240 237 240 239 239 243 244 249 251 248 248 249 250 248 257 268 261 252 246 250 259 255 256 265 267 266 266 267 264 260 255 254 250 244
273 270 266 263 262 263 260 252 245 243 239 240 237 237 239 239 243 246 249 249 250 250 251 257 263 262 250 242 235 249 260 253 261 271 268 266 268 266 262 260 257 253 243
281 274 271 269 266 262 260 255 246 246 246 243 240 240 241 244 248 247 249 244 243 246 250 257 263 268 253 240 240 245 257 264 261 254 260 257 259 257 255 259 257 250 241
286 280 271 267 266 265 274 273 265 250 244 243 245 245 245 247 253 256 257 258 252 248 247 250 256 259 261 246 243 250 255 261 263 236 248 264 253 254 251 246 255 253 245
295 288 278 270 267 271 275 274 272 263 249 244 243 247 253 255 257 250 259 264 262 262 256 252 252 252 258 251 244 246 245 248 256 252 256 265 258 259 260 257 258 254 253
294 288 287 281 273 277 281 279 278 269 257 250 245 242 244 250 252 252 249 253 252 255 254 250 249 251 255 254 243 247 250 258 269 246 230 258 259 259 266 257 256 249 249
297 291 290 286 282 285 288 283 279 266 257 253 249 246 246 245 256 256 252 253 255 256 261 259 259 261 263 264 262 256 244 245 259 251 221 242 256 271 265 252 253 249 251
298 296 297 293 286 284 289 287 281 263 261 260 253 250 254 256 260 255 245 244 252 256 258 264 265 269 266 264 262 247 237 238 249 254 215 221 244 265 275 253 244 244 246